Satellite: NOAA-18
Catalog number: 28654
Epoch time:      08121.76064194
Element set:    0412
Inclination:      098.8649 deg
RA of node:       063.2798 deg
Eccentricity:    0.0015352
Arg of perigee:   087.7906 deg
Mean anomaly:     272.5032 deg
Mean motion:   14.11157854 rev/day
Decay rate:       1.59e-06 rev/day^2
Epoch rev:           15178
Checksum:              327

/EX
SB KEPS @ AMSAT  $ORB08122.M
Orbital Elements  08122.MISC

HR AMSAT ORBITAL ELEMENTS FOR MANNED AND MISCELLANEOUS SATELLITES
FROM WA5QGD FORT WORTH,TX May 1, 2008
Send Subscribe/unsubscribe to KEPS at 
http://www.amsat.org/mailman/listinfo/keps
BID: ORB08122.M
TO ALL RADIO AMATEURS BT

Satellite: HUBBLE
Catalog number: 20580
Epoch time:      08122.71392583
Element set:     126
Inclination:      028.4699 deg
RA of node:       266.3418 deg
Eccentricity:    0.0003780
Arg of perigee:   246.7735 deg
Mean anomaly:     113.2454 deg
Mean motion:   15.00373465 rev/day
Decay rate:       4.16e-06 rev/day^2
Epoch rev:           78799
Checksum:              309

Satellite: UARS
Catalog number: 21701
Epoch time:      08121.93901822
Element set:    0374
Inclination:      056.9742 deg
RA of node:       007.5110 deg
Eccentricity:    0.0091171
Arg of perigee:   090.4164 deg
Mean anomaly:     270.7342 deg
Mean motion:   15.51556097 rev/day
Decay rate:      7.420e-05 rev/day^2
Epoch rev:           91516
Checksum:              273

Satellite: PO-34
Catalog number: 25520
Epoch time:      08121.37462954
Element set:    0984
Inclination:      028.4590 deg
RA of node:       138.8747 deg
Eccentricity:    0.0005518
Arg of perigee:   126.3849 deg
Mean anomaly:     233.7254 deg
Mean motion:   15.17182928 rev/day
Decay rate:       5.57e-06 rev/day^2
Epoch rev:           52589
Checksum:              338

Satellite: ISS
Catalog number: 25544
Epoch time:      08122.83988875
Element set:     402
Inclination:      051.6426 deg
RA of node:       255.2461 deg
Eccentricity:    0.0007140
Arg of perigee:   158.0834 deg
Mean anomaly:     338.8487 deg
Mean motion:   15.75927978 rev/day
Decay rate:     1.7563e-04 rev/day^2
Epoch rev:           54121
Checksum:              328

Satellite: OO-38
Catalog number: 26063
Epoch time:      08121.69742839
Element set:    0200
Inclination:      100.1936 deg
RA of node:       187.7215 deg
Eccentricity:    0.0036837
Arg of perigee:   344.0070 deg
Mean anomaly:     015.9935 deg
Mean motion:   14.35833963 rev/day
Decay rate:        1.1e-07 rev/day^2
Epoch rev:           43275
Checksum:              297

Satellite: UWE-1
Catalog number: 28892
Epoch time:      08121.44078083
Element set:    0036
Inclination:      098.1008 deg
RA of node:       016.2101 deg
Eccentricity:    0.0016863
Arg of perigee:   195.2081 deg
Mean anomaly:     164.8580 deg
Mean motion:   14.59621520 rev/day
Decay rate:       1.16e-06 rev/day^2
Epoch rev:           13363
Checksum:              273

Satellite: CO-58
Catalog number: 28895
Epoch time:      08121.41001771
Element set:    0010
Inclination:      098.1039 deg
RA of node:       016.5198 deg
Eccentricity:    0.0017370
Arg of perigee:   195.5138 deg
Mean anomaly:     164.5506 deg
Mean motion:   14.59661711 rev/day
Decay rate:        1.2e-07 rev/day^2
Epoch rev:           13351
Checksum:              284

Satellite: NCUBE2
Catalog number: 28897
Epoch time:      08122.27115668
Element set:     540
Inclination:      098.1011 deg
RA of node:       017.2939 deg
Eccentricity:    0.0016665
Arg of perigee:   194.4190 deg
Mean anomaly:     165.6507 deg
Mean motion:   14.59832867 rev/day
Decay rate:       1.83e-06 rev/day^2
Epoch rev:           12592
Checksum:              320

Satellite: FCAL
Catalog number: 29667
Epoch time:      08123.12355058
Element set:     923
Inclination:      051.6237 deg
RA of node:       194.2178 deg
Eccentricity:    0.0001225
Arg of perigee:   356.4484 deg
Mean anomaly:     003.6560 deg
Mean motion:   16.18727227 rev/day
Decay rate:    2.15523e-03 rev/day^2
Epoch rev:            7913
Checksum:              294

Satellite: FALCON
Catalog number: 30776
Epoch time:      08121.94537895
Element set:    0315
Inclination:      035.4325 deg
RA of node:       079.9975 deg
Eccentricity:    0.0001811
Arg of perigee:   322.0912 deg
Mean anomaly:     037.9683 deg
Mean motion:   15.02970309 rev/day
Decay rate:       6.71e-06 rev/day^2
Epoch rev:           06303
Checksum:              299

Satellite: MAST
Catalog number: 31126
Epoch time:      08121.73924332
Element set:     315
Inclination:      098.0402 deg
RA of node:       188.0613 deg
Eccentricity:    0.0095583
Arg of perigee:   118.6835 deg
Mean anomaly:     242.4011 deg
Mean motion:   14.53419763 rev/day
Decay rate:        8.8e-07 rev/day^2
Epoch rev:            5512
Checksum:              275

Satellite: CAPE1
Catalog number: 31130
Epoch time:      08122.19365808
Element set:     295
Inclination:      098.0425 deg
RA of node:       187.6165 deg
Eccentricity:    0.0103589
Arg of perigee:   119.8333 deg
Mean anomaly:     241.3201 deg
Mean motion:   14.51958271 rev/day
Decay rate:       1.95e-06 rev/day^2
Epoch rev:            5490
Checksum:              292

/EX



_______________________________________________
Via the Keps mailing list courtesy of AMSAT-NA
http://amsat.org/mailman/listinfo/keps

--- ViaMAIL!/WC v1.60d
 * Origin: Chowdanet (401-724-4410) telnet://chowdanet.com  (1:323/120)